Regional Weather Roundup
Issued by NWS

Home | Current Version | Previous Version | Text Only | Print | Product List | Glossary Off
Versions: 1 2 3 4 5 6 7 8 9 10 11 12 13 14 15 16 17 18 19 20 21 22 23 24 25 26 27 28 29 30 31 32 33 34 35 36 37 38 39 40 41 42 43 44 45 46 47 48 49 50

000
ASUS44 KMEG 200800
RWRTN
TENNESSEE HOURLY STATE WEATHER ROUNDUP
NATIONAL WEATHER SERVICE MEMPHIS TN
300 AM CDT WED AUG 20 2014

TNZ002-004-019-021-049-052-054-088>092-200900-
WEST TENNESSEE

CITY           SKY/WX    TMP DP  RH WIND       PRES   REMARKS
MEMPHIS INTL   CLEAR     80  75  84 SW5       29.90R
NWS MEMPHIS      N/A     81 N/A N/A MISG        N/A
JACKSON        CLEAR     79  75  87 SW6       29.90R
DYERSBURG      CLEAR     79  68  69 SW3       29.89R
UNION CITY     CLEAR     75  75 100 SW5       29.86S
PARIS          CLEAR     72  70  94 SW5       29.89R
SAVANNAH       CLEAR     75  75 100 CALM      29.92S
$$

TNZ008-025-027-028-033-062-065-066-200900-
NORTH MIDDLE TENNESSEE

CITY           SKY/WX    TMP DP  RH WIND       PRES   REMARKS
NASHVILLE      CLEAR     78  72  81 CALM      29.90F
CLARKSVILLE    CLEAR     74  71  91 CALM      29.88S
COOKEVILLE     CLEAR     72  70  94 SW3       29.93S
CROSSVILLE     CLEAR     71  67  87 CALM      29.99F FOG
$$

TNZ061-075-076-078-094-096-097-200900-
SOUTH MIDDLE TENNESSEE

CITY           SKY/WX    TMP DP  RH WIND       PRES   REMARKS
SHELBYVILLE    PTCLDY    75  73  94 S5        29.94S
$$

TNZ017-018-042-046-047-200900-
NORTHEAST TENNESSEE

CITY           SKY/WX    TMP DP  RH WIND       PRES   REMARKS
TRI CITIES     MOCLDY    67  64  90 CALM      29.97F FOG
ELIZABETHTON   MOSUNNY   64  64 100 CALM      29.99S
$$

TNZ012-013-036-069-073-074-200900-
CENTRAL EAST TENNESSEE

CITY           SKY/WX    TMP DP  RH WIND       PRES   REMARKS
KNOXVILLE      CLEAR     70  68  93 S5        29.93F
OAK RIDGE      PTCLDY    70  68  93 CALM      29.96S
GATLINBURG     SUNNY     66  64  94 CALM      29.94S
$$

TNZ083-085-099-200900-
SOUTHEAST TENNESSEE

CITY           SKY/WX    TMP DP  RH WIND       PRES   REMARKS
CHATTANOOGA    PTCLDY    74  70  87 CALM      29.94F
$$

SKY/WX REPORTED AS FAIR MEANS FEW OR NO CLOUDS BELOW
12 THOUSAND FEET.



USA.gov is the U.S. government's official web portal to all federal, state and local government web resources and services.